Piney Island, NC

1:39 AM EST on January 24, 2018 (GMT -0500)
Piney Island

Weather History for KNBT - December, 2012

Change the Weather History Date:

Saturday, December 1, 2012

  Actual Average (KMRH) Record (KMRH)
Temperature  
Mean Temperature 51 °F -  
Max Temperature 60 °F 62 °F 76 °F (1991)
Min Temperature 42 °F 41 °F 24 °F (1960)
Degree Days  
Heating Degree Days 14    
Growing Degree Days 1 (Base 50)    
Moisture  
Dew Point 45 °F    
Average Humidity 88    
Maximum Humidity 100    
Minimum Humidity 51    
Precipitation  
Precipitation 0.02 in - - ()
Sea Level Pressure  
Sea Level Pressure 30.37 in    
Wind  
Wind Speed 2 mph (NNW)    
Max Wind Speed 7 mph    
Max Gust Speed -    
Visibility 4 miles    
Events Fog    
Averages and records for this station are not official NWS values.
T = Trace of Precipitation, MM = Missing Value Source: NWS Daily Summary

Daily Weather History Graph

Daily Weather History Graph

Search for Another Location

Airport or City:

Trip Planner

Search our weather history database for the weather conditions in past years. The results will help you decide how hot, cold, wet, or windy it might be!

Date:

Astronomy

Dec. 01, 2012 Rise Set
Actual Time 6:55 AM EST 4:54 PM EST
Civil Twilight 6:28 AM EST 5:21 PM EST
Nautical Twilight 5:56 AM EST 5:53 PM EST
Astronomical Twilight 5:26 AM EST 6:23 PM EST
Moon 7:40 PM EST (12/1) 9:08 AM EST (12/1)
Length of Visible Light 10h 53m
Length of Day
9h 58m
Waning Gibbous, 92% of the Moon is Illuminated
Dec 1
Waning Gibbous
Dec 6
Last Quarter
Dec 13
New
Dec 20
First Quarter
Dec 28
Full

Hourly Weather History & Observations

Time (EST) Temp. Windchill Dew Point Humidity Pressure Visibility Wind Dir Wind Speed Gust Speed Precip Events Conditions
12:44 AM 46.4 °F 45.2 °F 44.6 °F 93% 30.35 in 1.5 mi NW 3.5 mph - N/A   Clear
12:50 AM 44.6 °F - 42.8 °F 93% 30.35 in 0.5 mi Calm Calm - N/A Fog Fog
12:56 AM 43.0 °F 41.3 °F 42.1 °F 97% 30.36 in 0.2 mi NNW 3.5 mph - 0.01 in Fog Fog
1:01 AM 44.6 °F 43.1 °F 42.8 °F 93% 30.35 in 0.5 mi NNW 3.5 mph - N/A Fog Fog
1:12 AM 46.4 °F 45.2 °F 44.6 °F 93% 30.34 in 0.8 mi NNW 3.5 mph - N/A   Mist
1:20 AM 46.4 °F 44.3 °F 46.4 °F 100% 30.35 in 0.5 mi NNW 4.6 mph - N/A Fog Fog
1:27 AM 46.4 °F 44.3 °F 46.4 °F 100% 30.35 in 0.2 mi NNW 4.6 mph - N/A Fog Fog
1:33 AM 48.2 °F - 46.4 °F 93% 30.35 in 0.8 mi NNW 3.5 mph - N/A   Clear
1:38 AM 48.2 °F - 46.4 °F 93% 30.35 in 2.0 mi NNW 4.6 mph - N/A   Clear
1:46 AM 48.2 °F - 46.4 °F 93% 30.35 in 4.0 mi NNW 3.5 mph - N/A   Clear
1:56 AM 48.9 °F - 46.9 °F 93% 30.36 in 3.0 mi Calm Calm - N/A   Clear
2:00 AM 48.2 °F - 46.4 °F 93% 30.35 in 1.8 mi NW 3.5 mph - N/A   Clear
2:10 AM 48.2 °F - 46.4 °F 93% 30.35 in 0.8 mi NNW 3.5 mph - N/A   Clear
2:19 AM 48.2 °F - 46.4 °F 93% 30.35 in 1.0 mi Calm Calm - N/A   Clear
2:32 AM 46.4 °F - 46.4 °F 100% 30.35 in 0.2 mi Calm Calm - N/A Fog Fog
2:41 AM 44.6 °F 43.1 °F 42.8 °F 93% 30.35 in 0.2 mi WSW 3.5 mph - N/A Fog Fog
2:51 AM 44.6 °F 42.2 °F 42.8 °F 93% 30.36 in 0.2 mi WSW 4.6 mph - N/A Fog Fog
2:56 AM 44.1 °F 41.5 °F 42.1 °F 93% 30.37 in 0.2 mi WSW 4.6 mph - N/A Fog Fog
3:07 AM 42.8 °F 41.1 °F 41.0 °F 93% 30.36 in 0.2 mi West 3.5 mph - N/A Fog Fog
3:44 AM 44.6 °F - 42.8 °F 93% 30.35 in 0.5 mi Calm Calm - N/A Fog Fog
3:50 AM 46.4 °F - 46.4 °F 100% 30.34 in 1.0 mi Calm Calm - N/A   Clear
3:53 AM 46.4 °F - 46.4 °F 100% 30.34 in 3.0 mi Calm Calm - N/A   Clear
3:56 AM 46.0 °F - 45.0 °F 96% 30.36 in 4.0 mi Calm Calm - N/A   Clear
4:07 AM 44.6 °F 42.2 °F 44.6 °F 100% 30.35 in 1.8 mi NW 4.6 mph - N/A   Clear
4:13 AM 44.6 °F 41.4 °F 44.6 °F 100% 30.35 in 0.5 mi NW 5.8 mph - N/A Fog Fog
4:42 AM 46.4 °F - 44.6 °F 93% 30.35 in 0.2 mi Calm Calm - N/A Fog Fog
5:07 AM 46.4 °F - 46.4 °F 100% 30.35 in 3.0 mi Calm Calm - N/A   Clear
5:56 AM 48.0 °F - 46.0 °F 93% 30.37 in 5.0 mi North 3.5 mph - N/A   Clear
6:09 AM 48.2 °F - 46.4 °F 93% 30.36 in 1.5 mi Calm Calm - N/A   Clear
6:20 AM 48.2 °F - 46.4 °F 93% 30.37 in 4.0 mi North 3.5 mph - N/A   Clear
6:42 AM 48.2 °F - 46.4 °F 93% 30.37 in 1.8 mi Calm Calm - N/A   Clear
6:56 AM 48.0 °F - 46.0 °F 93% 30.39 in 0.8 mi Calm Calm - N/A   Clear
7:03 AM 48.2 °F - 46.4 °F 93% 30.38 in 1.2 mi Calm Calm - N/A   Clear
7:08 AM 48.2 °F - 46.4 °F 93% 30.38 in 0.5 mi Calm Calm - 0.01 in Fog Fog
7:16 AM 46.4 °F - 46.4 °F 100% 30.38 in 0.2 mi Calm Calm - 0.01 in Fog Fog
7:24 AM 46.4 °F - 46.4 °F 100% 30.38 in 0.2 mi Calm Calm - 0.01 in Fog Fog
7:56 AM 45.0 °F - 45.0 °F 100% 30.41 in 0.2 mi Calm Calm - 0.01 in Fog Fog
8:21 AM 48.2 °F - 46.4 °F 93% 30.40 in 0.8 mi Calm Calm - N/A   Clear
8:26 AM 48.2 °F - 48.2 °F 100% 30.40 in 2.5 mi Calm Calm - N/A   Clear
8:34 AM 51.8 °F - 48.2 °F 88% 30.41 in 4.0 mi Calm Calm - N/A   Clear
8:56 AM 53.1 °F - 50.0 °F 89% 30.42 in 7.0 mi Calm Calm - N/A   Clear
9:56 AM 60.1 °F - 48.9 °F 67% 30.43 in 10.0 mi Calm Calm - N/A   Clear
10:56 AM 57.9 °F - 42.1 °F 56% 30.43 in 10.0 mi ENE 5.8 mph - N/A   Clear
11:56 AM 55.9 °F - 45.0 °F 67% 30.41 in 10.0 mi ENE 5.8 mph - N/A   Clear
12:56 PM 57.9 °F - 41.0 °F 53% 30.38 in 10.0 mi ENE 5.8 mph - N/A   Clear
1:56 PM 59.0 °F - 41.0 °F 51% 30.37 in 10.0 mi ENE 6.9 mph - N/A   Clear
2:56 PM 59.0 °F - 41.0 °F 51% 30.37 in 10.0 mi East 5.8 mph - N/A   Clear
3:56 PM 59.0 °F - 44.1 °F 58% 30.36 in 10.0 mi ESE 5.8 mph - N/A   Clear
4:56 PM 54.0 °F - 45.0 °F 72% 30.36 in 10.0 mi ESE 5.8 mph - N/A   Clear
5:56 PM 54.0 °F - 45.0 °F 72% 30.38 in 10.0 mi ESE 3.5 mph - N/A   Clear
6:56 PM 50.0 °F - 45.0 °F 83% 30.40 in 9.0 mi SSE 5.8 mph - N/A   Clear
7:56 PM 50.0 °F - 43.0 °F 77% 30.40 in 10.0 mi Calm Calm - N/A   Clear
8:56 PM 51.1 °F - 45.0 °F 80% 30.41 in 10.0 mi Calm Calm - N/A   Clear
9:56 PM 50.0 °F - 46.0 °F 86% 30.41 in 9.0 mi Calm Calm - N/A   Clear
10:56 PM 50.0 °F - 46.9 °F 89% 30.42 in 8.0 mi Calm Calm - N/A   Clear
11:56 PM 50.0 °F - 48.0 °F 93% 30.41 in 8.0 mi Calm Calm - N/A   Clear